Regional Weather Roundup
Issued by NWS

Home | Current Version | Previous Version | Graphics & Text | Print | Product List | Glossary On
Versions: 1 2 3 4 5 6 7 8 9 10 11 12 13 14 15 16 17 18 19 20 21 22 23 24 25 26 27 28 29 30 31 32 33 34 35 36 37 38 39 40 41 42 43 44 45 46 47 48 49 50
000
ASUS43 KLSX 172057
RWRMO

WEATHER SUMMARY FOR MISSOURI
NATIONAL WEATHER SERVICE SPRINGFIELD MO
400 PM CDT THU AUG 17 2017

NOTE: "FAIR" INDICATES FEW OR NO CLOUDS BELOW 12,000 FEET WITH NO
       SIGNIFICANT WEATHER AND/OR OBSTRUCTIONS TO VISIBILITY.
       CURRENT SKY AND/OR WEATHER CONDITIONS ARE NOT AVAILABLE FOR
       CHILLICOTHE AND FARMINGTON.

MOZ001>031-035>038-043-044-053-054-172200-
...NORTHERN AND WESTERN MISSOURI...

CITY           SKY/WX    TMP DP  RH WIND       PRES   REMARKS
KANSAS CTY INT MOSUNNY   83  61  47 W12       29.95F
LEE`S SUMMIT   SUNNY     81  61  50 NW13G20   29.95F
ST JOSEPH      SUNNY     82  63  52 NW10G18   29.93S
CHILLICOTHE      N/A     84  60  44 W10       29.91S

$$
MOZ066>068-077>081-088>096-101>105-172200-
...SOUTHWEST MISSOURI...

CITY           SKY/WX    TMP DP  RH WIND       PRES   REMARKS
SPRINGFIELD    CLOUDY    82  68  62 W12G20    29.98S
JOPLIN         SUNNY     86  69  56 W10       29.99F HX  90
BRANSON        PTSUNNY   81  68  65 W8        30.01F

$$
MOZ032>034-039>042-045>050-055>058-069>072-172200-
...CENTRAL MISSOURI...

CITY           SKY/WX    TMP DP  RH WIND       PRES   REMARKS
COLUMBIA       NOT AVBL
JEFFERSON CITY CLOUDY    82  68  62 W13       29.90S
ROLLA          MOSUNNY   80  67  64 W14       29.94S
SEDALIA        SUNNY     84  67  56 W13G21    29.94S

$$
MOZ051-052-059>065-172200-
...EAST CENTRAL MISSOURI...

CITY           SKY/WX    TMP DP  RH WIND       PRES   REMARKS
ST LOUIS INTL  PTSUNNY   86  69  56 W14       29.86S HX  90

$$
MOZ072>076-082>087-097>100-106>115-172200-
...SOUTH CENTRAL AND SOUTHEAST MISSOURI...

CITY           SKY/WX    TMP DP  RH WIND       PRES   REMARKS
CAPE GIRARDEAU PTSUNNY   83  72  69 SW12      29.89S
POPLAR BLUFF   MOSUNNY   84  75  74 SW8       29.90F HX  92
WEST PLAINS    MOSUNNY   84  69  60 W8        29.97F

$$



USA.gov is the U.S. government's official web portal to all federal, state and local government web resources and services.